Location: 433rd Scouts Home(Lloyd Manor Park, Etobicoke )
(43.6722°N, 79.5542°W)
Time: 10:01:02
(UTC-04:00)

Nauka - Pass Details

Date: 26 September 2021
Orbit: 417 x 423 km, 51.6° (Epoch: 26 October)

Event Time Altitude Azimuth Distance (km) Brightness Sun altitude
Rises 21:11:13 0° 301° (WNW) 2,366 ? -22.8°
Reaches altitude 10° 21:13:34 10° 315° (NW) 1,502 ? -23.1°
Enters shadow 21:15:47 24° 354° (N) 928 ? -23.5°
